www.pogodaiklimat.ru

Погода и климат >> Архив погоды >> Аргентина >> San Ramon de la Nueva Oran


ПОГОДА в San Ramon de la Nueva Oran

  • Прогноз погоды в San Ramon de la Nueva Oran
  • Монитор погоды в San Ramon de la Nueva Oran
  • Климат города

АРХИВ ПОГОДЫ в San Ramon de la Nueva Oran

Время (UTC), дата Ветер
(напр.,м/с)
 
Видим.   Явления Облачность Т
(С)
Тd
(С)
f
(%)
Тe
(С)
Тes
(С)
Комфортность P
(гПа)
Po
(гПа)
Тmin
(С)
Tmax
(С)
R
(мм)
R24
(мм)
S
(см)
18 12.09 З 4 10 км 6/3 600 м
[Sc Ac As]
+24.6 +3.1 25 +24 +29 комфорт 1013.6 972.6
21 12.09 ЮВ 3 10 км 8/4 600 м
[Sc Ac As]
+23.2 +5.0 31 +23 +24 комфорт 1012.9 971.8
00 13.09 штиль 0 10 км 9/4 600 м
[Sc Ac As]
+21.0 +9.1 46 +22 +22 комфорт 1015.5 974.2 +16.0 +25.3
03 13.09 штиль 0 10 км 5/1 600 м
[Sc Ac und]
+18.0 +8.4 53 +18 +18 1016.3 975.0
06 13.09 штиль 0 10 км 8/3 600 м
[Sc Ac As]
+15.6 +9.3 66 +15 +15 1014.9 973.8
09 13.09 С 4 10 км 10/6 600 м
[Sc Ac As]
+15.2 +9.2 67 +14 +14 1013.6 972.4
12 13.09 Ю 1 15 км 9/0
[Ac As]
+15.6 +9.7 68 +16 +18 1014.5 973.2 +14.8 +21.0
15 13.09 Ю 1 12 км 9/0
[Ac As]
+20.4 +8.8 47 +23 +30 комфорт 1012.9 971.8
18 13.09 ЮВ 1 12 км 5/0
[Ac und]
+24.0 +9.2 39 +25 +36 комфорт 1008.2 967.3
21 13.09 ЮВ 3 12 км 4/0
[Ac trans]
+23.6 +9.9 42 +25 +26 комфорт 1007.5 966.6
00 14.09 ЮВ 3 10 км ясно +17.4 +9.9 61 +18 +18 1010.9 969.4 +13.4 +25.7
03 14.09 ЮВ 3 10 км ясно +16.2 +10.2 68 +16 +16 1013.3 972.0
06 14.09 штиль 0 10 км ясно +13.2 +10.1 81 +13 +13 1013.6 972.4
09 14.09 З 3 10 км ясно +12.4 +8.6 78 +11 +11 1013.9 972.6
12 14.09 З 3 10 км 8/6 450 м
[Cu Sc Cs]
+13.7 +9.7 77 +13 +14 1016.1 974.2 +11.3 +17.4
15 14.09 С 4 10 км 1/0
[Ac und]
+23.9 +9.1 39 +25 +35 комфорт 1014.0 972.9
18 14.09 В 3 10 км 1/1 600 м
[Cu hum]
+28.8 +4.9 22 +27 +39 жарко 1009.8 969.0
21 14.09 ЮВ 3 10 км ясно +28.4 +6.9 26 +28 +29 жарко 1009.5 968.6
00 15.09 штиль 0 6000 м дым 1/0
[Cs]
+20.8 +10.7 52 +22 +22 комфорт 1013.1 971.7 +13.7 +29.8
03 15.09 штиль 0 6000 м дым 4/0
[Cs]
+16.1 +10.9 71 +16 +16 1015.2 974.1
06 15.09 штиль 0 6000 м дым 9/0
[Cs]
+17.4 +9.3 59 +17 +17 1015.9 975.2
09 15.09 штиль 0 6000 м дым 9/0
[Cs]
+17.2 +11.6 70 +17 +17 1018.9 978.0
12 15.09 Ю 3 6000 м дым 10/5 600 м
[Sc Ac As]
+18.4 +8.0 51 +19 +19 1023.1 981.6 +16.0 +20.8
15 15.09 Ю 3 6000 м дым 10/5 600 м
[Sc Ac As]
+20.2 +9.9 52 +22 +24 комфорт 1026.2 984.4
18 15.09 В 4 6000 м дым 10/10 600 м
[Cu Sc]
+20.4 +10.2 52 +22 +22 комфорт 1022.6 981.0
21 15.09 З 4 6000 м дым 10/10 600 м
[Cu Sc]
+19.8 +10.3 54 +21 +21 комфорт 1022.3 980.6
00 16.09 ЮЗ 3 6000 м дым 10/10 600 м
[Sc]
+18.0 +10.6 62 +18 +18 1024.7 983.0 +18.0 +21.0
03 16.09 Ю 3 6000 м дым 10/10 600 м
[Sc]
+17.0 +10.3 65 +17 +17 1027.5 985.7
09 16.09 ЮЗ 4 6000 м дым 10/10 600 м
[Sc]
+14.1 +9.9 76 +13 +13 1027.5 985.4
12 16.09 З 4 5000 м дым 10/6 600 м
[Sc Ac As]
+14.0 +9.4 74 +13 +13 1029.7 987.4 +11.0 +18.0
15 16.09 С 4 10 км 10/10 600 м
[Sc]
+17.0 +6.1 49 +17 +17 1028.8 986.6
18 16.09 СЗ 3 10 км 6/1 600 м
[Cu hum Cs]
+20.4 +6.7 41 +22 +33 комфорт 1025.0 983.2
21 16.09 штиль 0 10 км 4/1 600 м
[Cu hum Cs]
+22.0 +7.0 38 +23 +25 комфорт 1023.0 981.3
00 17.09 штиль 0 10 км 3/0
[Cs]
+14.8 +9.0 68 +15 +15 1024.8 982.5 +14.0 +22.0
03 17.09 штиль 0 10 км 9/0
[Ac As]
+14.0 +8.5 69 +14 +14 1025.6 983.4
06 17.09 СЗ 1 10 км 6/0
[Ac As]
+11.6 +7.5 76 +11 +11 1023.8 981.8
09 17.09 штиль 0 10 км ясно +10.4 +7.5 82 +10 +10 1023.0 981.0
12 17.09 СЗ 7 10 км ясно +13.2 +7.5 68 +11 +12 1024.7 982.4 +8.5 +15.0
15 17.09 С 3 10 км 1/1 600 м
[Cu hum]
+23.8 +7.1 34 +24 +38 комфорт 1022.8 981.2
18 17.09 С 3 10 км 3/3 600 м
[Cu hum]
+27.0 +7.1 28 +27 +36 жарко 1017.9 976.6
21 17.09 С 3 10 км 3/3 600 м
[Sc]
+26.3 +6.5 28 +26 +27 жарко 1016.4 975.0
00 18.09 штиль 0 10 км 3/0
[Ac und]
+21.5 +6.5 38 +22 +22 комфорт 1018.0 976.4 +13.2 +27.3
03 18.09 З 3 10 км ясно +16.2 +9.8 66 +16 +16 1018.8 977.4
06 18.09 З 3 10 км ясно +14.8 +9.6 71 +14 +14 1017.2 976.1
09 18.09 СЗ 3 10 км ясно +11.6 +8.8 83 +10 +10 1016.6 975.3
12 18.09 З 3 10 км ясно +14.0 +8.9 71 +13 +16 1018.6 977.0 +10.8 +21.5
15 18.09 В 3 10 км ясно +24.6 +8.9 37 +25 +40 комфорт 1016.3 975.2
18 18.09 СЗ 4 10 км ясно +30.0 +7.4 24 +29 +39 жарко 1012.1 971.4
21 18.09 ЮЗ 4 10 км ясно +30.4 +7.0 23 +29 +31 жарко 1010.8 970.0
00 19.09 Ю 1 10 км 5/0
[Cs]
+21.1 +11.1 53 +23 +23 комфорт 1012.6 971.3 +14.0 +31.3
03 19.09 штиль 0 10 км 4/0
[Cs]
+18.6 +11.6 64 +19 +19 1013.2 972.4
06 19.09 штиль 0 10 км 3/0
[Cs]
+16.4 +10.4 68 +16 +16 1011.3 970.8
09 19.09 З 3 10 км 3/0
[Cs]
+14.3 +10.7 79 +14 +14 1011.0 970.4
12 19.09 СЗ 1 10 км ясно +18.0 +10.6 62 +19 +23 1012.7 971.6 +12.5 +21.1

 

Местоположение метеостанции San Ramon de la Nueva Oran (Аргентина): широта -23.15 долгота -64.31 высота над уровнем моря 357 м.

В архиве по умолчанию представлена погода в San Ramon de la Nueva Oran за последнюю неделю. Архивные данные за месяц целиком и за предыдущие месяцы, начиная с января 2011 года, Вы можете получить, выбрав интересующий диапазон дат из раскрывающегося списка и нажав кнопку "Ввод!".

Внимание! Время в таблицах - всемирное. Для получения местного времени необходимо прибавить поправку, которая в San Ramon de la Nueva Oran равна -3 ч.

Смотрите также архив погоды в соседних городах и на ближайших метеорологических станциях:

Погода в Bermejo (Боливия) (43 км)
Погода в Tartagal (Аргентина) (79 км)
Погода в Yacuiba (Боливия) (150 км)
Погода в San Salvador de Jujuy (Аргентина) (158 км)
Погода в La Quiaca (Аргентина) (177 км)
Погода в Tarija (Боливия) (182 км)
Погода в Salta (Аргентина) (223 км)
Погода в Villamontes (Боливия) (229 км)
Погода в Prats-Gil (Парагвай) (292 км)
Погода в Camiri (Боливия) (360 км)

Пояснения к столбцам:

Ветер - указаны скорость ветра в м/с - средняя за 10 мин, порывы в срок и между сроками (в фигурных скобках) и направление, откуда дует ветер: С - северный, СВ - северо-восточный, В - восточный, ЮВ - юго-восточный, Ю - южный, ЮЗ - юго-западный, З - западный, СЗ - северо-западный.
Видимость - горизонтальная дальность видимости в метрах или километрах. При видимости от 1 до 10 км при отсутствии осадков обычно наблюдается дымка, при ухудшении видимости до 1 км и менее - туман. В сухую погоду видимость может ухудшаться дымом, пылью или мглою.
Явления - указаны атмосферные явления, наблюдавшиеся в срок или в последний час перед сроком; фигурными скобками обозначены явления, наблюдавшиеся между сроками (за 1-3 часа до срока); квадратными скобками обозначены град или гололедные отложения с указанием их диаметра в мм.
Облачность - указаны через наклонную черту общая и нижняя облачность в баллах и высота нижней границы облаков в метрах; квадратными скобками обозначены формы облаков: Ci - перистые, Cs - перисто-слоистые, Cc - перисто-кучевые, Ac - высококучевые, As - высокослоистые, Sc - слоисто-кучевые, Ns - слоисто-дождевые, Cu - кучевые, Cb - кучево-дождевые. Подробнее классификацию облаков см. в Атласе облаков (PDF).
T - Температура воздуха - температура, измеренная на высоте 2 м над землей.
Td - Температура точки росы - температура, при понижении до которой содержащийся в воздухе водяной пар достигнет насыщения.
f - Относительная влажность воздуха - влажноcть воздуха, измеренная на высоте 2 м над землей.
Te - Эффективная температура - температура, которую ощущает одетый по сезону человек в тени. Характеристика душности погоды. При расчете учитывается влияние влажности воздуха и скорости ветра на теплоощущения человека.
Tes - Эффективная температура на солнце - температура, которую ощущает человек, с поправкой на солнечный нагрев. Характеристика знойности погоды. Зависит от высоты солнца над горизонтом, облачности и скорости ветра. Ночью, в пасмурную погоду, а также при ветре 12 м/с и более поправка равна нулю.
P - Атмосферное давление - приведенное к уровню моря атмосферное давление.
Po - Атмосферное давление - измеренное на уровне метеостанции атмосферное давление.
Tmin - Минимальная температура - минимум температуры воздуха на высоте 2 м над землей.
Tmax - Максимальная температура - максимум температуры воздуха на высоте 2 м над землей.
R - Количество осадков - Количество выпавших осадков за период времени, мм. При наведении курсора мыши на число - период времени, за который выпало указанное количество осадков.
R24 - Количество осадков - Количество выпавших осадков за 24 часа, мм.
S - Снежный покров - Высота снежного покрова, см. При наведении курсора мыши на число - состояние снежного покрова и степень покрытия местности в баллах.